DFALK EGPC-EDVK

Flight info

Callsign DFALK
Flight time 4h 43m
Altitude 20000
Route LESNI DCT DOKEN DCT SUTEB DCT JUIST DCT WRB Z190 ROBAR
Aircraft C208/L-SDFGR/C

Departure

Time 2026-04-29 11:00
Airport Wick John O'Groats Airport (EGPC)

Arrival

Time 2026-04-29 15:43
Airport Kassel Airport (EDVK)
Time Latitude Longitude Altitude Speed Heading
2026-04-29 10:51 58.45369 -3.08789 124 ft 0 kts 112°
2026-04-29 10:58 58.45400 -3.08793 121 ft 14 kts 334°
2026-04-29 10:58 58.45464 -3.08797 125 ft 6 kts 37°
2026-04-29 10:58 58.45497 -3.08749 122 ft 10 kts 37°
2026-04-29 10:58 58.45545 -3.08664 122 ft 7 kts 55°
2026-04-29 10:59 58.45605 -3.08611 121 ft 20 kts 318°
2026-04-29 10:59 58.45842 -3.09204 119 ft 92 kts 308°
2026-04-29 10:59 58.46244 -3.10336 368 ft 109 kts 296°
2026-04-29 10:59 58.46245 -3.11762 655 ft 113 kts 239°
2026-04-29 11:00 58.45608 -3.12421 928 ft 111 kts 173°
2026-04-29 11:00 58.45067 -3.11436 1152 ft 116 kts 107°
2026-04-29 11:00 58.45042 -3.09892 1412 ft 122 kts 90°
2026-04-29 11:00 58.45014 -3.08207 1509 ft 136 kts 110°
2026-04-29 11:01 58.44476 -3.06686 1667 ft 144 kts 136°
2026-04-29 11:01 58.43796 -3.05151 1654 ft 158 kts 130°
2026-04-29 11:01 58.43090 -3.03551 1832 ft 155 kts 133°
2026-04-29 11:01 58.42380 -3.02051 2081 ft 150 kts 134°
2026-04-29 11:02 58.41677 -3.00602 2329 ft 147 kts 135°
2026-04-29 11:02 58.40989 -2.99182 2578 ft 145 kts 135°
2026-04-29 11:02 58.40310 -2.97786 2826 ft 143 kts 135°
2026-04-29 11:02 58.39634 -2.96397 3081 ft 143 kts 136°
2026-04-29 11:03 58.38962 -2.95013 3326 ft 142 kts 136°
2026-04-29 11:03 58.38289 -2.93632 3576 ft 142 kts 135°
2026-04-29 11:03 58.37613 -2.92244 3828 ft 144 kts 135°
2026-04-29 11:03 58.36926 -2.90831 4079 ft 146 kts 135°
2026-04-29 11:04 58.36229 -2.89404 4329 ft 148 kts 135°
2026-04-29 11:04 58.35525 -2.87964 4580 ft 149 kts 134°
2026-04-29 11:04 58.34818 -2.86516 4830 ft 150 kts 135°
2026-04-29 11:04 58.34108 -2.85061 5080 ft 150 kts 135°
2026-04-29 11:05 58.33393 -2.83601 5332 ft 151 kts 134°
2026-04-29 11:05 58.32676 -2.82136 5581 ft 152 kts 134°
2026-04-29 11:05 58.31957 -2.80667 5831 ft 152 kts 134°
2026-04-29 11:05 58.31235 -2.79193 6081 ft 152 kts 134°
2026-04-29 11:06 58.30515 -2.77726 6330 ft 152 kts 134°
2026-04-29 11:06 58.29797 -2.76261 6580 ft 152 kts 134°
2026-04-29 11:06 58.29079 -2.74796 6831 ft 152 kts 134°
2026-04-29 11:06 58.28359 -2.73332 7081 ft 152 kts 134°
2026-04-29 11:07 58.27637 -2.71864 7331 ft 152 kts 134°
2026-04-29 11:07 58.26917 -2.70400 7581 ft 152 kts 134°
2026-04-29 11:07 58.26195 -2.68932 7832 ft 152 kts 134°
2026-04-29 11:07 58.25474 -2.67470 8081 ft 152 kts 133°
2026-04-29 11:08 58.24752 -2.66007 8337 ft 152 kts 134°
2026-04-29 11:08 58.24030 -2.64541 8573 ft 152 kts 134°
2026-04-29 11:08 58.23308 -2.63076 8831 ft 152 kts 133°
2026-04-29 11:08 58.22585 -2.61613 9081 ft 152 kts 133°
2026-04-29 11:09 58.21873 -2.60171 9328 ft 152 kts 133°
2026-04-29 11:09 58.21151 -2.58710 9578 ft 152 kts 133°
2026-04-29 11:09 58.20429 -2.57250 9828 ft 152 kts 133°
2026-04-29 11:09 58.19706 -2.55790 10078 ft 152 kts 133°
2026-04-29 11:10 58.18984 -2.54332 10329 ft 152 kts 133°
2026-04-29 11:10 58.18263 -2.52876 10584 ft 151 kts 132°
2026-04-29 11:10 58.17541 -2.51422 10828 ft 151 kts 132°
2026-04-29 11:10 58.16820 -2.49969 11079 ft 151 kts 131°
2026-04-29 11:11 58.16101 -2.48519 11329 ft 151 kts 131°
2026-04-29 11:11 58.15383 -2.47074 11579 ft 151 kts 131°
2026-04-29 11:11 58.14663 -2.45628 11829 ft 151 kts 131°
2026-04-29 11:11 58.13946 -2.44185 12079 ft 150 kts 131°
2026-04-29 11:12 58.13230 -2.42746 12328 ft 150 kts 130°
2026-04-29 11:12 58.12513 -2.41308 12579 ft 150 kts 130°
2026-04-29 11:12 58.11798 -2.39873 12829 ft 150 kts 130°
2026-04-29 11:12 58.11083 -2.38439 13079 ft 150 kts 130°
2026-04-29 11:13 58.10371 -2.37011 13328 ft 149 kts 130°
2026-04-29 11:13 58.09658 -2.35586 13586 ft 149 kts 130°
2026-04-29 11:13 58.08946 -2.34161 13825 ft 149 kts 130°
2026-04-29 11:13 58.08236 -2.32740 14079 ft 149 kts 130°
2026-04-29 11:14 58.07526 -2.31322 14329 ft 148 kts 130°
2026-04-29 11:14 58.06829 -2.29929 14575 ft 148 kts 130°
2026-04-29 11:14 58.06124 -2.28521 14825 ft 147 kts 130°
2026-04-29 11:14 58.05412 -2.27100 15078 ft 146 kts 130°
2026-04-29 11:15 58.04713 -2.25708 15328 ft 146 kts 130°
2026-04-29 11:15 58.04017 -2.24319 15578 ft 145 kts 130°
2026-04-29 11:15 58.03325 -2.22940 15827 ft 144 kts 130°
2026-04-29 11:15 58.02645 -2.21588 16073 ft 144 kts 129°
2026-04-29 11:16 58.01959 -2.20224 16323 ft 143 kts 130°
2026-04-29 11:16 58.01280 -2.18871 16573 ft 142 kts 130°
2026-04-29 11:16 58.00604 -2.17529 16822 ft 141 kts 129°
2026-04-29 11:16 57.99934 -2.16199 17072 ft 139 kts 129°
2026-04-29 11:17 57.99267 -2.14876 17321 ft 139 kts 130°
2026-04-29 11:17 57.98607 -2.13565 17570 ft 138 kts 129°
2026-04-29 11:17 57.97950 -2.12265 17820 ft 136 kts 129°
2026-04-29 11:17 57.97299 -2.10974 18070 ft 135 kts 130°
2026-04-29 11:18 57.96655 -2.09695 18318 ft 134 kts 129°
2026-04-29 11:18 57.96015 -2.08433 18568 ft 133 kts 129°
2026-04-29 11:18 57.95383 -2.07180 18816 ft 132 kts 130°
2026-04-29 11:18 57.94758 -2.05943 19065 ft 129 kts 129°
2026-04-29 11:19 57.94139 -2.04721 19315 ft 128 kts 129°
2026-04-29 11:19 57.93530 -2.03516 19562 ft 126 kts 130°
2026-04-29 11:19 57.92929 -2.02332 19811 ft 124 kts 129°
2026-04-29 11:19 57.92338 -2.01165 20059 ft 122 kts 130°
2026-04-29 11:20 57.91758 -2.00019 20307 ft 120 kts 129°
2026-04-29 11:20 57.91184 -1.98885 20481 ft 125 kts 129°
2026-04-29 11:20 57.90545 -1.97626 20497 ft 141 kts 130°
2026-04-29 11:20 57.89835 -1.96235 20491 ft 154 kts 131°
2026-04-29 11:21 57.89072 -1.94740 20498 ft 163 kts 131°
2026-04-29 11:21 57.88272 -1.93172 20495 ft 169 kts 131°
2026-04-29 11:21 57.87446 -1.91552 20493 ft 174 kts 131°
2026-04-29 11:21 57.86598 -1.89889 20496 ft 177 kts 131°
2026-04-29 11:22 57.85740 -1.88207 20496 ft 179 kts 131°
2026-04-29 11:22 57.84873 -1.86508 20496 ft 181 kts 131°
2026-04-29 11:22 57.84012 -1.84821 20497 ft 182 kts 131°
2026-04-29 11:22 57.83135 -1.83105 20497 ft 182 kts 131°
2026-04-29 11:23 57.82255 -1.81384 20495 ft 183 kts 131°
2026-04-29 11:23 57.81374 -1.79663 20494 ft 183 kts 131°
2026-04-29 11:23 57.80491 -1.77939 20495 ft 183 kts 131°
2026-04-29 11:23 57.79606 -1.76211 20496 ft 183 kts 131°
2026-04-29 11:24 57.78722 -1.74488 20495 ft 184 kts 131°
2026-04-29 11:24 57.77836 -1.72765 20496 ft 184 kts 131°
2026-04-29 11:24 57.76949 -1.71037 20496 ft 184 kts 131°
2026-04-29 11:24 57.76062 -1.69309 20496 ft 184 kts 131°
2026-04-29 11:25 57.75175 -1.67586 20496 ft 184 kts 131°
2026-04-29 11:25 57.74287 -1.65863 20496 ft 184 kts 131°
2026-04-29 11:25 57.73401 -1.64141 20496 ft 184 kts 131°
2026-04-29 11:25 57.72514 -1.62420 20496 ft 184 kts 131°
2026-04-29 11:26 57.70741 -1.58984 20497 ft 184 kts 131°
2026-04-29 11:26 57.69855 -1.57270 20497 ft 183 kts 131°
2026-04-29 11:26 57.68968 -1.55553 20497 ft 183 kts 131°
2026-04-29 11:27 57.68079 -1.53836 20496 ft 184 kts 131°
2026-04-29 11:27 57.67192 -1.52125 20495 ft 183 kts 131°
2026-04-29 11:27 57.66304 -1.50413 20495 ft 183 kts 131°
2026-04-29 11:27 57.65418 -1.48703 20495 ft 183 kts 131°
2026-04-29 11:28 57.64531 -1.46993 20495 ft 183 kts 131°
2026-04-29 11:28 57.63644 -1.45287 20495 ft 183 kts 131°
2026-04-29 11:28 57.62758 -1.43583 20495 ft 183 kts 131°
2026-04-29 11:28 57.61871 -1.41880 20495 ft 183 kts 131°
2026-04-29 11:29 57.60984 -1.40174 20486 ft 183 kts 131°
2026-04-29 11:29 57.60095 -1.38467 20485 ft 183 kts 131°
2026-04-29 11:29 57.59210 -1.36769 20485 ft 183 kts 131°
2026-04-29 11:29 57.58323 -1.35071 20485 ft 182 kts 131°
2026-04-29 11:30 57.57444 -1.33386 20484 ft 182 kts 131°
2026-04-29 11:30 57.56560 -1.31694 20484 ft 181 kts 131°
2026-04-29 11:30 57.55978 -1.30583 20484 ft 181 kts 131°
2026-04-29 11:30 57.55102 -1.28907 20484 ft 180 kts 131°
2026-04-29 11:31 57.54229 -1.27241 20483 ft 179 kts 131°
2026-04-29 11:31 57.53366 -1.25563 20483 ft 179 kts 130°
2026-04-29 11:31 57.52513 -1.23879 20483 ft 179 kts 130°
2026-04-29 11:31 57.51658 -1.22200 20483 ft 179 kts 130°
2026-04-29 11:32 57.50802 -1.20524 20483 ft 178 kts 130°
2026-04-29 11:32 57.49948 -1.18854 20483 ft 178 kts 130°
2026-04-29 11:32 57.49095 -1.17185 20483 ft 178 kts 130°
2026-04-29 11:32 57.48241 -1.15517 20483 ft 178 kts 130°
2026-04-29 11:33 57.47387 -1.13849 20484 ft 178 kts 130°
2026-04-29 11:33 57.46533 -1.12183 20484 ft 178 kts 130°
2026-04-29 11:33 57.45679 -1.10520 20484 ft 178 kts 130°
2026-04-29 11:33 57.44827 -1.08860 20484 ft 177 kts 130°
2026-04-29 11:34 57.43976 -1.07203 20484 ft 177 kts 130°
2026-04-29 11:34 57.43124 -1.05546 20484 ft 177 kts 130°
2026-04-29 11:34 57.42273 -1.03893 20484 ft 177 kts 130°
2026-04-29 11:34 57.41421 -1.02240 20484 ft 177 kts 130°
2026-04-29 11:35 57.40570 -1.00588 20484 ft 177 kts 130°
2026-04-29 11:35 57.39720 -0.98939 20485 ft 177 kts 130°
2026-04-29 11:35 57.38868 -0.97289 20485 ft 177 kts 130°
2026-04-29 11:35 57.38019 -0.95645 20485 ft 177 kts 130°
2026-04-29 11:36 57.37180 -0.94022 20485 ft 177 kts 130°
2026-04-29 11:36 57.36319 -0.92357 20485 ft 177 kts 130°
2026-04-29 11:36 57.35468 -0.90712 20485 ft 177 kts 130°
2026-04-29 11:36 57.34619 -0.89072 20485 ft 176 kts 130°
2026-04-29 11:37 57.33781 -0.87454 20485 ft 176 kts 130°
2026-04-29 11:37 57.32932 -0.85817 20486 ft 176 kts 130°
2026-04-29 11:37 57.32083 -0.84181 20486 ft 176 kts 130°
2026-04-29 11:37 57.31233 -0.82547 20486 ft 176 kts 130°
2026-04-29 11:38 57.30383 -0.80911 20486 ft 176 kts 130°
2026-04-29 11:38 57.29533 -0.79277 20486 ft 176 kts 129°
2026-04-29 11:38 57.28672 -0.77624 20486 ft 176 kts 129°
2026-04-29 11:38 57.27834 -0.76014 20486 ft 176 kts 130°
2026-04-29 11:39 57.26986 -0.74387 20486 ft 176 kts 130°
2026-04-29 11:39 57.26138 -0.72761 20487 ft 176 kts 130°
2026-04-29 11:39 57.25290 -0.71136 20487 ft 176 kts 130°
2026-04-29 11:39 57.24442 -0.69512 20487 ft 176 kts 130°
2026-04-29 11:40 57.23593 -0.67885 20487 ft 176 kts 130°
2026-04-29 11:40 57.22743 -0.66261 20487 ft 176 kts 130°
2026-04-29 11:40 57.21894 -0.64640 20487 ft 176 kts 129°
2026-04-29 11:40 57.21044 -0.63018 20487 ft 175 kts 129°
2026-04-29 11:41 57.20196 -0.61400 20487 ft 175 kts 130°
2026-04-29 11:41 57.19346 -0.59781 20488 ft 175 kts 130°
2026-04-29 11:41 57.18500 -0.58169 20487 ft 175 kts 130°
2026-04-29 11:41 57.17651 -0.56553 20488 ft 175 kts 129°
2026-04-29 11:42 57.16803 -0.54939 20488 ft 175 kts 130°
2026-04-29 11:42 57.15955 -0.53327 20488 ft 175 kts 130°
2026-04-29 11:42 57.15108 -0.51717 20488 ft 175 kts 130°
2026-04-29 11:42 57.14261 -0.50109 20488 ft 175 kts 130°
2026-04-29 11:43 57.13414 -0.48502 20488 ft 175 kts 130°
2026-04-29 11:43 57.12566 -0.46896 20488 ft 175 kts 129°
2026-04-29 11:43 57.11719 -0.45291 20488 ft 175 kts 129°
2026-04-29 11:43 57.10872 -0.43687 20489 ft 175 kts 129°
2026-04-29 11:44 57.10025 -0.42085 20489 ft 175 kts 129°
2026-04-29 11:44 57.09178 -0.40484 20489 ft 175 kts 130°
2026-04-29 11:44 57.08329 -0.38880 20489 ft 175 kts 130°
2026-04-29 11:44 57.07481 -0.37279 20489 ft 175 kts 130°
2026-04-29 11:45 57.06632 -0.35677 20489 ft 175 kts 130°
2026-04-29 11:45 57.05784 -0.34077 20489 ft 175 kts 130°
2026-04-29 11:45 57.04934 -0.32478 20489 ft 175 kts 130°
2026-04-29 11:45 57.04084 -0.30878 20490 ft 175 kts 130°
2026-04-29 11:46 57.03235 -0.29280 20490 ft 175 kts 130°
2026-04-29 11:46 57.02386 -0.27683 20490 ft 175 kts 130°
2026-04-29 11:46 57.01546 -0.26107 20490 ft 175 kts 130°
2026-04-29 11:46 57.00697 -0.24513 20490 ft 175 kts 130°
2026-04-29 11:47 56.99836 -0.22898 20491 ft 175 kts 130°
2026-04-29 11:47 56.98987 -0.21308 20490 ft 175 kts 130°
2026-04-29 11:47 56.98150 -0.19738 20490 ft 174 kts 130°
2026-04-29 11:47 56.97292 -0.18131 20490 ft 174 kts 130°
2026-04-29 11:48 56.96443 -0.16543 20491 ft 174 kts 130°
2026-04-29 11:48 56.95607 -0.14978 20490 ft 174 kts 130°
2026-04-29 11:48 56.94760 -0.13395 20491 ft 174 kts 130°
2026-04-29 11:48 56.93910 -0.11810 20491 ft 174 kts 129°
2026-04-29 11:49 56.93061 -0.10227 20491 ft 174 kts 129°
2026-04-29 11:49 56.92213 -0.08646 20491 ft 174 kts 129°
2026-04-29 11:49 56.91364 -0.07065 20491 ft 174 kts 130°
2026-04-29 11:49 56.90517 -0.05487 20492 ft 174 kts 130°
2026-04-29 11:50 56.89667 -0.03905 20491 ft 174 kts 130°
2026-04-29 11:50 56.88819 -0.02329 20492 ft 174 kts 130°
2026-04-29 11:50 56.87970 -0.00751 20492 ft 174 kts 130°
2026-04-29 11:50 56.87120 0.00827 20492 ft 174 kts 130°
2026-04-29 11:51 56.86271 0.02405 20491 ft 174 kts 128°
2026-04-29 11:51 56.85422 0.03978 20499 ft 175 kts 128°
2026-04-29 11:51 56.84564 0.05568 20500 ft 176 kts 128°
2026-04-29 11:51 56.83704 0.07160 20501 ft 176 kts 128°
2026-04-29 11:52 56.82842 0.08753 20501 ft 177 kts 128°
2026-04-29 11:52 56.81978 0.10350 20501 ft 177 kts 128°
2026-04-29 11:52 56.81115 0.11944 20502 ft 177 kts 127°
2026-04-29 11:52 56.80250 0.13541 20502 ft 177 kts 128°
2026-04-29 11:53 56.79386 0.15137 20502 ft 177 kts 128°
2026-04-29 11:53 56.78522 0.16730 20502 ft 177 kts 128°
2026-04-29 11:53 56.77656 0.18326 20502 ft 177 kts 128°
2026-04-29 11:53 56.76802 0.19898 20502 ft 177 kts 128°
2026-04-29 11:54 56.75938 0.21490 20503 ft 177 kts 128°
2026-04-29 11:54 56.75072 0.23081 20503 ft 177 kts 128°
2026-04-29 11:54 56.74206 0.24671 20503 ft 177 kts 128°
2026-04-29 11:54 56.73340 0.26262 20503 ft 177 kts 128°
2026-04-29 11:55 56.72475 0.27849 20503 ft 176 kts 127°
2026-04-29 11:55 56.71610 0.29434 20503 ft 176 kts 127°
2026-04-29 11:55 56.70745 0.31019 20503 ft 176 kts 127°
2026-04-29 11:55 56.69882 0.32597 20503 ft 176 kts 127°
2026-04-29 11:56 56.69019 0.34179 20503 ft 176 kts 127°
2026-04-29 11:56 56.68155 0.35759 20503 ft 176 kts 128°
2026-04-29 11:56 56.67291 0.37339 20504 ft 176 kts 128°
2026-04-29 11:56 56.66424 0.38921 20504 ft 176 kts 128°
2026-04-29 11:57 56.65559 0.40499 20504 ft 176 kts 127°
2026-04-29 11:57 56.64695 0.42074 20504 ft 176 kts 127°
2026-04-29 11:57 56.63829 0.43652 20504 ft 176 kts 127°
2026-04-29 11:57 56.62963 0.45228 20504 ft 176 kts 127°
2026-04-29 11:58 56.62097 0.46804 20504 ft 176 kts 128°
2026-04-29 11:58 56.61231 0.48379 20504 ft 176 kts 128°
2026-04-29 11:58 56.60366 0.49952 20504 ft 176 kts 128°
2026-04-29 11:58 56.59500 0.51526 20505 ft 176 kts 128°
2026-04-29 11:59 56.58634 0.53098 20505 ft 176 kts 128°
2026-04-29 11:59 56.57766 0.54671 20505 ft 176 kts 128°
2026-04-29 11:59 56.56899 0.56241 20505 ft 176 kts 128°
2026-04-29 11:59 56.56032 0.57813 20506 ft 176 kts 128°
2026-04-29 12:00 56.55165 0.59382 20505 ft 176 kts 128°
2026-04-29 12:00 56.54298 0.60949 20505 ft 176 kts 128°
2026-04-29 12:00 56.53430 0.62517 20505 ft 176 kts 129°
2026-04-29 12:00 56.52562 0.64084 20506 ft 176 kts 128°
2026-04-29 12:01 56.51695 0.65649 20506 ft 176 kts 128°
2026-04-29 12:01 56.50828 0.67213 20506 ft 176 kts 129°
2026-04-29 12:01 56.49962 0.68775 20506 ft 176 kts 129°
2026-04-29 12:01 56.49111 0.70309 20506 ft 176 kts 128°
2026-04-29 12:02 56.48231 0.71893 20506 ft 176 kts 128°
2026-04-29 12:02 56.47365 0.73450 20506 ft 175 kts 128°
2026-04-29 12:02 56.46499 0.75005 20506 ft 175 kts 128°
2026-04-29 12:02 56.45633 0.76561 20505 ft 175 kts 128°
2026-04-29 12:03 56.44767 0.78116 20504 ft 175 kts 128°
2026-04-29 12:03 56.43901 0.79670 20504 ft 176 kts 128°
2026-04-29 12:03 56.43034 0.81223 20505 ft 176 kts 129°
2026-04-29 12:03 56.42176 0.82760 20505 ft 176 kts 129°
2026-04-29 12:04 56.41309 0.84313 20505 ft 176 kts 129°
2026-04-29 12:04 56.40439 0.85870 20505 ft 176 kts 129°
2026-04-29 12:04 56.39570 0.87424 20505 ft 176 kts 129°
2026-04-29 12:04 56.38701 0.88976 20506 ft 176 kts 128°
2026-04-29 12:05 56.37830 0.90530 20505 ft 176 kts 128°
2026-04-29 12:05 56.36961 0.92080 20505 ft 176 kts 128°
2026-04-29 12:05 56.36091 0.93631 20506 ft 176 kts 128°
2026-04-29 12:05 56.35220 0.95183 20506 ft 176 kts 128°
2026-04-29 12:06 56.34350 0.96732 20506 ft 176 kts 129°
2026-04-29 12:06 56.33478 0.98283 20505 ft 176 kts 129°
2026-04-29 12:06 56.32608 0.99831 20506 ft 176 kts 129°
2026-04-29 12:06 56.31735 1.01381 20506 ft 176 kts 128°
2026-04-29 12:07 56.30864 1.02928 20506 ft 176 kts 128°
2026-04-29 12:07 56.29991 1.04477 20506 ft 176 kts 128°
2026-04-29 12:07 56.29120 1.06022 20506 ft 176 kts 128°
2026-04-29 12:07 56.28247 1.07569 20503 ft 176 kts 128°
2026-04-29 12:08 56.27372 1.09116 20505 ft 176 kts 128°
2026-04-29 12:08 56.26500 1.10659 20504 ft 176 kts 128°
2026-04-29 12:08 56.25627 1.12204 20504 ft 176 kts 128°
2026-04-29 12:08 56.24754 1.13747 20504 ft 176 kts 128°
2026-04-29 12:09 56.23880 1.15291 20504 ft 176 kts 129°
2026-04-29 12:09 56.23008 1.16831 20504 ft 176 kts 129°
2026-04-29 12:09 56.22145 1.18354 20505 ft 176 kts 128°
2026-04-29 12:09 56.21259 1.19915 20500 ft 176 kts 128°
2026-04-29 12:10 56.20392 1.21441 20494 ft 176 kts 128°
2026-04-29 12:10 56.19516 1.22982 20494 ft 176 kts 128°
2026-04-29 12:10 56.18641 1.24521 20494 ft 176 kts 128°
2026-04-29 12:10 56.17765 1.26061 20494 ft 176 kts 128°
2026-04-29 12:11 56.16889 1.27598 20494 ft 176 kts 128°
2026-04-29 12:11 56.16015 1.29133 20494 ft 176 kts 128°
2026-04-29 12:11 56.15140 1.30669 20494 ft 176 kts 128°
2026-04-29 12:11 56.14267 1.32200 20494 ft 176 kts 128°
2026-04-29 12:12 56.13391 1.33735 20494 ft 176 kts 128°
2026-04-29 12:12 56.12518 1.35263 20494 ft 176 kts 128°
2026-04-29 12:12 56.11642 1.36795 20494 ft 176 kts 128°
2026-04-29 12:12 56.10767 1.38323 20495 ft 176 kts 128°
2026-04-29 12:13 56.09893 1.39850 20495 ft 175 kts 128°
2026-04-29 12:13 56.09018 1.41379 20495 ft 175 kts 128°
2026-04-29 12:13 56.08145 1.42902 20495 ft 175 kts 128°
2026-04-29 12:13 56.07271 1.44426 20495 ft 175 kts 128°
2026-04-29 12:14 56.06397 1.45950 20495 ft 175 kts 128°
2026-04-29 12:14 56.05523 1.47472 20495 ft 176 kts 128°
2026-04-29 12:14 56.04647 1.48996 20495 ft 176 kts 128°
2026-04-29 12:14 56.03773 1.50517 20495 ft 175 kts 128°
2026-04-29 12:15 56.02898 1.52036 20495 ft 175 kts 128°
2026-04-29 12:15 56.02022 1.53558 20496 ft 175 kts 128°
2026-04-29 12:15 56.01147 1.55076 20495 ft 175 kts 128°
2026-04-29 12:15 56.00273 1.56591 20496 ft 175 kts 128°
2026-04-29 12:16 55.99398 1.58108 20496 ft 175 kts 128°
2026-04-29 12:16 55.98523 1.59622 20497 ft 175 kts 128°
2026-04-29 12:16 55.97650 1.61134 20497 ft 175 kts 128°
2026-04-29 12:16 55.96777 1.62643 20497 ft 174 kts 128°
2026-04-29 12:17 55.95907 1.64148 20497 ft 174 kts 128°
2026-04-29 12:17 55.95035 1.65655 20496 ft 174 kts 128°
2026-04-29 12:17 55.94165 1.67157 20497 ft 174 kts 128°
2026-04-29 12:17 55.93294 1.68659 20497 ft 174 kts 128°
2026-04-29 12:18 55.92423 1.70162 20497 ft 174 kts 128°
2026-04-29 12:18 55.91550 1.71665 20497 ft 174 kts 128°
2026-04-29 12:18 55.90679 1.73164 20497 ft 174 kts 128°
2026-04-29 12:18 55.89806 1.74666 20497 ft 174 kts 128°
2026-04-29 12:19 55.88932 1.76169 20494 ft 175 kts 128°
2026-04-29 12:19 55.88353 1.77164 20494 ft 175 kts 128°
2026-04-29 12:19 55.87479 1.78665 20494 ft 175 kts 128°
2026-04-29 12:19 55.86605 1.80166 20495 ft 174 kts 128°
2026-04-29 12:20 55.85448 1.82151 20495 ft 174 kts 128°
2026-04-29 12:20 55.84575 1.83648 20495 ft 174 kts 128°
2026-04-29 12:20 55.83701 1.85143 20495 ft 174 kts 128°
2026-04-29 12:20 55.82828 1.86638 20495 ft 174 kts 128°
2026-04-29 12:21 55.82238 1.87648 20495 ft 174 kts 128°
2026-04-29 12:21 55.81363 1.89144 20495 ft 174 kts 128°
2026-04-29 12:21 55.80490 1.90636 20495 ft 174 kts 128°
2026-04-29 12:21 55.79614 1.92129 20495 ft 174 kts 128°
2026-04-29 12:22 55.78741 1.93619 20495 ft 174 kts 128°
2026-04-29 12:22 55.77867 1.95111 20496 ft 174 kts 128°
2026-04-29 12:22 55.76993 1.96599 20496 ft 174 kts 128°
2026-04-29 12:22 55.76132 1.98066 20496 ft 174 kts 128°
2026-04-29 12:23 55.75258 1.99552 20496 ft 174 kts 128°
2026-04-29 12:23 55.74384 2.01041 20496 ft 174 kts 128°
2026-04-29 12:23 55.73508 2.02530 20496 ft 174 kts 128°
2026-04-29 12:23 55.72633 2.04016 20496 ft 174 kts 128°
2026-04-29 12:24 55.71756 2.05505 20496 ft 175 kts 128°
2026-04-29 12:24 55.70879 2.06993 20496 ft 175 kts 128°
2026-04-29 12:24 55.69999 2.08483 20497 ft 175 kts 128°
2026-04-29 12:24 55.69120 2.09972 20497 ft 175 kts 128°
2026-04-29 12:25 55.68321 2.11560 20489 ft 170 kts 116°
2026-04-29 12:25 55.67829 2.13416 20481 ft 164 kts 102°
2026-04-29 12:25 55.67104 2.17252 20482 ft 164 kts 102°
2026-04-29 12:26 55.66739 2.19165 20482 ft 164 kts 102°
2026-04-29 12:26 55.66375 2.21074 20482 ft 164 kts 102°
2026-04-29 12:26 55.66011 2.22984 20482 ft 164 kts 103°
2026-04-29 12:26 55.65646 2.24897 20483 ft 164 kts 103°
2026-04-29 12:27 55.65282 2.26805 20483 ft 164 kts 103°
2026-04-29 12:27 55.64917 2.28715 20483 ft 164 kts 103°
2026-04-29 12:27 55.64556 2.30600 20483 ft 164 kts 103°
2026-04-29 12:27 55.64191 2.32507 20483 ft 164 kts 103°
2026-04-29 12:28 55.63824 2.34418 20483 ft 164 kts 103°
2026-04-29 12:28 55.63459 2.36325 20483 ft 164 kts 103°
2026-04-29 12:28 55.63092 2.38234 20483 ft 164 kts 103°
2026-04-29 12:28 55.62725 2.40140 20483 ft 163 kts 102°
2026-04-29 12:29 55.62359 2.42042 20483 ft 163 kts 103°
2026-04-29 12:29 55.61992 2.43946 20484 ft 163 kts 103°
2026-04-29 12:29 55.61625 2.45849 20489 ft 163 kts 103°
2026-04-29 12:29 55.61259 2.47746 20499 ft 163 kts 103°
2026-04-29 12:30 55.60892 2.49643 20499 ft 163 kts 103°
2026-04-29 12:30 55.60525 2.51543 20499 ft 163 kts 103°
2026-04-29 12:30 55.60157 2.53443 20500 ft 163 kts 103°
2026-04-29 12:30 55.59788 2.55343 20500 ft 163 kts 102°
2026-04-29 12:31 55.59420 2.57243 20500 ft 163 kts 102°
2026-04-29 12:31 55.59051 2.59139 20500 ft 163 kts 102°
2026-04-29 12:31 55.58683 2.61034 20501 ft 163 kts 102°
2026-04-29 12:31 55.58313 2.62931 20500 ft 163 kts 102°
2026-04-29 12:32 55.57944 2.64825 20500 ft 163 kts 103°
2026-04-29 12:32 55.57575 2.66718 20501 ft 163 kts 103°
2026-04-29 12:32 55.57205 2.68614 20501 ft 163 kts 103°
2026-04-29 12:32 55.56835 2.70507 20501 ft 163 kts 103°
2026-04-29 12:33 55.56464 2.72404 20501 ft 163 kts 103°
2026-04-29 12:33 55.56093 2.74303 20501 ft 163 kts 103°
2026-04-29 12:33 55.55722 2.76198 20501 ft 163 kts 103°
2026-04-29 12:33 55.55349 2.78099 20501 ft 164 kts 102°
2026-04-29 12:34 55.54977 2.79994 20501 ft 163 kts 103°
2026-04-29 12:34 55.54603 2.81891 20501 ft 163 kts 102°
2026-04-29 12:34 55.54231 2.83785 20502 ft 163 kts 103°
2026-04-29 12:34 55.53857 2.85683 20502 ft 164 kts 103°
2026-04-29 12:35 55.53483 2.87577 20502 ft 164 kts 103°
2026-04-29 12:35 55.53110 2.89472 20502 ft 164 kts 103°
2026-04-29 12:35 55.52735 2.91371 20502 ft 164 kts 103°
2026-04-29 12:35 55.52360 2.93267 20502 ft 164 kts 103°
2026-04-29 12:36 55.51990 2.95141 20502 ft 164 kts 103°
2026-04-29 12:36 55.51614 2.97041 20502 ft 164 kts 103°
2026-04-29 12:36 55.51237 2.98941 20503 ft 164 kts 103°
2026-04-29 12:36 55.50859 3.00841 20503 ft 164 kts 103°
2026-04-29 12:37 55.50481 3.02743 20503 ft 164 kts 102°
2026-04-29 12:37 55.50104 3.04638 20503 ft 164 kts 102°
2026-04-29 12:37 55.49727 3.06533 20503 ft 164 kts 102°
2026-04-29 12:37 55.49350 3.08428 20503 ft 164 kts 102°
2026-04-29 12:38 55.48973 3.10319 20503 ft 164 kts 103°
2026-04-29 12:38 55.48595 3.12214 20503 ft 164 kts 103°
2026-04-29 12:38 55.48217 3.14106 20503 ft 164 kts 103°
2026-04-29 12:38 55.47838 3.16002 20504 ft 164 kts 103°
2026-04-29 12:39 55.47458 3.17898 20504 ft 164 kts 102°
2026-04-29 12:39 55.47079 3.19790 20504 ft 164 kts 102°
2026-04-29 12:39 55.46699 3.21683 20504 ft 164 kts 102°
2026-04-29 12:39 55.46319 3.23579 20504 ft 164 kts 102°
2026-04-29 12:40 55.45937 3.25474 20504 ft 164 kts 102°
2026-04-29 12:40 55.45556 3.27370 20504 ft 164 kts 102°
2026-04-29 12:40 55.45174 3.29265 20504 ft 164 kts 102°
2026-04-29 12:40 55.44792 3.31162 20505 ft 164 kts 102°
2026-04-29 12:41 55.44412 3.33055 20504 ft 164 kts 103°
2026-04-29 12:41 55.44029 3.34950 20505 ft 164 kts 103°
2026-04-29 12:41 55.43645 3.36845 20505 ft 164 kts 102°
2026-04-29 12:41 55.43261 3.38742 20505 ft 164 kts 102°
2026-04-29 12:42 55.42882 3.40615 20505 ft 165 kts 102°
2026-04-29 12:42 55.42498 3.42512 20505 ft 165 kts 102°
2026-04-29 12:42 55.42113 3.44407 20505 ft 164 kts 102°
2026-04-29 12:42 55.41726 3.46307 20506 ft 165 kts 102°
2026-04-29 12:43 55.41340 3.48212 20506 ft 165 kts 102°
2026-04-29 12:43 55.40953 3.50114 20506 ft 165 kts 103°
2026-04-29 12:43 55.40566 3.52016 20506 ft 165 kts 103°
2026-04-29 12:43 55.40178 3.53918 20506 ft 165 kts 103°
2026-04-29 12:44 55.39791 3.55814 20506 ft 165 kts 102°
2026-04-29 12:44 55.39403 3.57714 20506 ft 165 kts 102°
2026-04-29 12:44 55.39015 3.59614 20506 ft 165 kts 102°
2026-04-29 12:44 55.38627 3.61508 20506 ft 165 kts 102°
2026-04-29 12:45 55.38239 3.63404 20507 ft 165 kts 102°
2026-04-29 12:45 55.37850 3.65297 20507 ft 165 kts 102°
2026-04-29 12:45 55.37461 3.67194 20507 ft 165 kts 102°
2026-04-29 12:45 55.37071 3.69091 20507 ft 165 kts 102°
2026-04-29 12:46 55.36680 3.70991 20507 ft 165 kts 103°
2026-04-29 12:46 55.36290 3.72889 20507 ft 165 kts 103°
2026-04-29 12:46 55.35898 3.74792 20508 ft 166 kts 103°
2026-04-29 12:46 55.35506 3.76693 20507 ft 166 kts 103°
2026-04-29 12:47 55.35113 3.78599 20508 ft 166 kts 103°
2026-04-29 12:47 55.34720 3.80500 20507 ft 166 kts 103°
2026-04-29 12:47 55.34326 3.82402 20508 ft 166 kts 102°
2026-04-29 12:47 55.33932 3.84306 20508 ft 166 kts 102°
2026-04-29 12:48 55.33538 3.86205 20508 ft 165 kts 102°
2026-04-29 12:48 55.33145 3.88101 20508 ft 165 kts 102°
2026-04-29 12:48 55.32751 3.89999 20508 ft 165 kts 102°
2026-04-29 12:48 55.32357 3.91897 20509 ft 166 kts 103°
2026-04-29 12:49 55.31962 3.93795 20509 ft 166 kts 103°
2026-04-29 12:49 55.31567 3.95694 20508 ft 166 kts 103°
2026-04-29 12:49 55.31172 3.97590 20509 ft 166 kts 103°
2026-04-29 12:49 55.30776 3.99487 20509 ft 166 kts 103°
2026-04-29 12:50 55.30385 4.01359 20509 ft 165 kts 102°
2026-04-29 12:50 55.29990 4.03253 20509 ft 165 kts 102°
2026-04-29 12:50 55.29588 4.05174 20509 ft 165 kts 102°
2026-04-29 12:50 55.29197 4.07039 20509 ft 165 kts 102°
2026-04-29 12:51 55.28801 4.08930 20509 ft 165 kts 102°
2026-04-29 12:51 55.28405 4.10819 20509 ft 165 kts 102°
2026-04-29 12:51 55.28008 4.12708 20509 ft 165 kts 102°
2026-04-29 12:51 55.27611 4.14599 20510 ft 165 kts 102°
2026-04-29 12:52 55.27214 4.16487 20509 ft 165 kts 102°
2026-04-29 12:52 55.26817 4.18375 20510 ft 165 kts 102°
2026-04-29 12:52 55.26419 4.20262 20510 ft 165 kts 102°
2026-04-29 12:52 55.26021 4.22151 20510 ft 165 kts 102°
2026-04-29 12:53 55.25622 4.24041 20510 ft 165 kts 102°
2026-04-29 12:53 55.25223 4.25928 20510 ft 165 kts 102°
2026-04-29 12:53 55.24823 4.27817 20510 ft 165 kts 102°
2026-04-29 12:53 55.24423 4.29709 20511 ft 166 kts 102°
2026-04-29 12:54 55.24022 4.31599 20511 ft 166 kts 102°
2026-04-29 12:54 55.23622 4.33486 20511 ft 165 kts 102°
2026-04-29 12:54 55.23221 4.35374 20511 ft 165 kts 102°
2026-04-29 12:54 55.22820 4.37262 20511 ft 165 kts 102°
2026-04-29 12:55 55.22420 4.39146 20511 ft 165 kts 102°
2026-04-29 12:55 55.22019 4.41030 20511 ft 165 kts 102°
2026-04-29 12:55 55.21618 4.42908 20511 ft 165 kts 102°
2026-04-29 12:55 55.21216 4.44792 20511 ft 165 kts 102°
2026-04-29 12:56 55.20814 4.46675 20511 ft 165 kts 102°
2026-04-29 12:56 55.20412 4.48556 20512 ft 165 kts 102°
2026-04-29 12:56 55.20009 4.50440 20512 ft 165 kts 102°
2026-04-29 12:56 55.19606 4.52322 20512 ft 165 kts 103°
2026-04-29 12:57 55.19203 4.54207 20512 ft 165 kts 102°
2026-04-29 12:57 55.18799 4.56092 20512 ft 165 kts 102°
2026-04-29 12:57 55.18395 4.57974 20512 ft 165 kts 102°
2026-04-29 12:57 55.17994 4.59835 20512 ft 165 kts 102°
2026-04-29 12:58 55.17590 4.61716 20512 ft 165 kts 102°
2026-04-29 12:58 55.17184 4.63601 20512 ft 165 kts 102°
2026-04-29 12:58 55.16778 4.65483 20512 ft 165 kts 102°
2026-04-29 12:58 55.16374 4.67364 20513 ft 166 kts 103°
2026-04-29 12:59 55.15968 4.69245 20513 ft 166 kts 103°
2026-04-29 12:59 55.15561 4.71127 20513 ft 165 kts 103°
2026-04-29 12:59 55.15154 4.73010 20513 ft 165 kts 103°
2026-04-29 12:59 55.14747 4.74890 20513 ft 165 kts 102°
2026-04-29 13:00 55.14339 4.76770 20514 ft 165 kts 102°
2026-04-29 13:00 55.13933 4.78644 20514 ft 165 kts 102°
2026-04-29 13:00 55.13525 4.80520 20514 ft 165 kts 102°
2026-04-29 13:00 55.13118 4.82395 20514 ft 165 kts 102°
2026-04-29 13:01 55.12710 4.84272 20514 ft 165 kts 102°
2026-04-29 13:01 55.12302 4.86146 20514 ft 165 kts 102°
2026-04-29 13:01 55.11894 4.88022 20514 ft 165 kts 103°
2026-04-29 13:01 55.11486 4.89893 20514 ft 165 kts 102°
2026-04-29 13:02 55.11078 4.91766 20514 ft 165 kts 102°
2026-04-29 13:02 55.10669 4.93635 20514 ft 165 kts 102°
2026-04-29 13:02 55.10260 4.95506 20514 ft 165 kts 102°
2026-04-29 13:02 55.09851 4.97376 20515 ft 165 kts 102°
2026-04-29 13:03 55.09442 4.99241 20515 ft 165 kts 102°
2026-04-29 13:03 55.09032 5.01110 20515 ft 165 kts 102°
2026-04-29 13:03 55.08622 5.02981 20515 ft 165 kts 102°
2026-04-29 13:03 55.08211 5.04851 20515 ft 165 kts 103°
2026-04-29 13:04 55.07800 5.06723 20515 ft 165 kts 102°
2026-04-29 13:04 55.07390 5.08589 20515 ft 165 kts 102°
2026-04-29 13:04 55.06978 5.10460 20513 ft 165 kts 102°
2026-04-29 13:04 55.06566 5.12327 20513 ft 165 kts 102°
2026-04-29 13:05 55.06155 5.14192 20513 ft 165 kts 102°
2026-04-29 13:05 55.05742 5.16060 20513 ft 165 kts 102°
2026-04-29 13:05 55.05329 5.17925 20513 ft 165 kts 102°
2026-04-29 13:05 55.04923 5.19765 20514 ft 165 kts 102°
2026-04-29 13:06 55.04505 5.21654 20514 ft 165 kts 102°
2026-04-29 13:06 55.04098 5.23490 20514 ft 165 kts 102°
2026-04-29 13:06 55.03685 5.25353 20514 ft 165 kts 102°
2026-04-29 13:06 55.03272 5.27213 20514 ft 165 kts 102°
2026-04-29 13:07 55.02858 5.29073 20514 ft 164 kts 102°
2026-04-29 13:07 55.02445 5.30933 20514 ft 164 kts 102°
2026-04-29 13:07 55.02031 5.32792 20515 ft 164 kts 102°
2026-04-29 13:07 55.01617 5.34648 20515 ft 165 kts 102°
2026-04-29 13:08 55.01203 5.36507 20515 ft 165 kts 102°
2026-04-29 13:08 55.00788 5.38366 20515 ft 164 kts 102°
2026-04-29 13:08 55.00360 5.40216 20516 ft 167 kts 107°
2026-04-29 13:08 54.99689 5.41921 20510 ft 176 kts 122°
2026-04-29 13:09 54.98719 5.43301 20516 ft 185 kts 138°
2026-04-29 13:09 54.97617 5.44483 20512 ft 186 kts 138°
2026-04-29 13:09 54.96523 5.45670 20512 ft 185 kts 138°
2026-04-29 13:09 54.95428 5.46860 20512 ft 185 kts 137°
2026-04-29 13:10 54.94336 5.48047 20512 ft 185 kts 137°
2026-04-29 13:10 54.93239 5.49236 20512 ft 185 kts 138°
2026-04-29 13:10 54.92145 5.50421 20512 ft 185 kts 137°
2026-04-29 13:10 54.91052 5.51606 20513 ft 185 kts 137°
2026-04-29 13:11 54.90326 5.52393 20513 ft 185 kts 137°
2026-04-29 13:11 54.89230 5.53578 20513 ft 185 kts 137°
2026-04-29 13:11 54.88122 5.54777 20513 ft 185 kts 137°
2026-04-29 13:11 54.87040 5.55946 20513 ft 186 kts 137°
2026-04-29 13:12 54.85944 5.57129 20513 ft 186 kts 137°
2026-04-29 13:12 54.84848 5.58313 20513 ft 186 kts 137°
2026-04-29 13:12 54.83750 5.59498 20503 ft 186 kts 137°
2026-04-29 13:12 54.82648 5.60686 20502 ft 186 kts 137°
2026-04-29 13:13 54.81549 5.61869 20503 ft 186 kts 137°
2026-04-29 13:13 54.80453 5.63049 20503 ft 185 kts 137°
2026-04-29 13:13 54.79356 5.64228 20503 ft 185 kts 137°
2026-04-29 13:13 54.78262 5.65404 20503 ft 185 kts 137°
2026-04-29 13:14 54.77166 5.66583 20503 ft 185 kts 137°
2026-04-29 13:14 54.76069 5.67760 20503 ft 186 kts 138°
2026-04-29 13:14 54.74971 5.68938 20503 ft 186 kts 137°
2026-04-29 13:14 54.73875 5.70115 20503 ft 186 kts 137°
2026-04-29 13:15 54.72776 5.71292 20503 ft 186 kts 137°
2026-04-29 13:15 54.71678 5.72469 20493 ft 186 kts 137°
2026-04-29 13:15 54.70578 5.73645 20493 ft 185 kts 137°
2026-04-29 13:15 54.69483 5.74816 20493 ft 185 kts 137°
2026-04-29 13:16 54.68385 5.75990 20493 ft 185 kts 137°
2026-04-29 13:16 54.67288 5.77162 20493 ft 185 kts 137°
2026-04-29 13:16 54.66190 5.78335 20493 ft 185 kts 137°
2026-04-29 13:16 54.65094 5.79504 20494 ft 185 kts 137°
2026-04-29 13:17 54.63995 5.80674 20494 ft 185 kts 137°
2026-04-29 13:17 54.62898 5.81844 20494 ft 185 kts 137°
2026-04-29 13:17 54.61817 5.82995 20494 ft 185 kts 137°
2026-04-29 13:17 54.60721 5.84160 20494 ft 185 kts 137°
2026-04-29 13:18 54.59626 5.85326 20494 ft 185 kts 137°
2026-04-29 13:18 54.58529 5.86492 20494 ft 185 kts 137°
2026-04-29 13:18 54.57434 5.87655 20494 ft 185 kts 137°
2026-04-29 13:18 54.56337 5.88820 20495 ft 185 kts 137°
2026-04-29 13:19 54.55240 5.89983 20495 ft 185 kts 137°
2026-04-29 13:19 54.54143 5.91145 20495 ft 185 kts 137°
2026-04-29 13:19 54.53044 5.92309 20485 ft 186 kts 137°
2026-04-29 13:19 54.51944 5.93473 20485 ft 185 kts 137°
2026-04-29 13:20 54.50846 5.94636 20484 ft 185 kts 137°
2026-04-29 13:20 54.49749 5.95797 20485 ft 185 kts 137°
2026-04-29 13:20 54.48651 5.96957 20485 ft 185 kts 137°
2026-04-29 13:20 54.47551 5.98119 20485 ft 185 kts 137°
2026-04-29 13:21 54.46451 5.99280 20485 ft 185 kts 137°
2026-04-29 13:21 54.45357 6.00432 20485 ft 185 kts 137°
2026-04-29 13:21 54.44252 6.01597 20485 ft 185 kts 137°
2026-04-29 13:21 54.43152 6.02756 20485 ft 185 kts 137°
2026-04-29 13:22 54.42054 6.03911 20485 ft 185 kts 137°
2026-04-29 13:22 54.40953 6.05070 20485 ft 185 kts 137°
2026-04-29 13:22 54.39850 6.06229 20486 ft 186 kts 137°
2026-04-29 13:22 54.38748 6.07387 20486 ft 186 kts 137°
2026-04-29 13:23 54.37643 6.08548 20475 ft 187 kts 137°
2026-04-29 13:23 54.36537 6.09708 20475 ft 186 kts 137°
2026-04-29 13:23 54.35434 6.10864 20475 ft 186 kts 137°
2026-04-29 13:23 54.34334 6.12018 20475 ft 185 kts 137°
2026-04-29 13:24 54.33234 6.13170 20475 ft 185 kts 137°
2026-04-29 13:24 54.32135 6.14319 20475 ft 185 kts 137°
2026-04-29 13:24 54.31037 6.15468 20476 ft 185 kts 137°
2026-04-29 13:24 54.29937 6.16618 20476 ft 185 kts 137°
2026-04-29 13:25 54.28838 6.17765 20476 ft 185 kts 137°
2026-04-29 13:25 54.26639 6.20061 20476 ft 185 kts 137°
2026-04-29 13:25 54.25540 6.21207 20476 ft 185 kts 137°
2026-04-29 13:26 54.24439 6.22354 20476 ft 185 kts 137°
2026-04-29 13:26 54.23337 6.23503 20477 ft 186 kts 137°
2026-04-29 13:26 54.22234 6.24649 20477 ft 185 kts 137°
2026-04-29 13:26 54.21146 6.25780 20477 ft 185 kts 137°
2026-04-29 13:27 54.20047 6.26923 20477 ft 185 kts 137°
2026-04-29 13:27 54.18942 6.28071 20428 ft 188 kts 137°
2026-04-29 13:27 54.17795 6.29272 20187 ft 198 kts 138°
2026-04-29 13:27 54.16593 6.30520 19918 ft 206 kts 139°
2026-04-29 13:28 54.15373 6.31769 19643 ft 202 kts 139°
2026-04-29 13:28 54.14178 6.33000 19373 ft 200 kts 138°
2026-04-29 13:28 54.12997 6.34225 19110 ft 198 kts 139°
2026-04-29 13:28 54.11826 6.35438 18849 ft 196 kts 138°
2026-04-29 13:29 54.10662 6.36642 18588 ft 195 kts 138°
2026-04-29 13:29 54.09502 6.37842 18321 ft 195 kts 139°
2026-04-29 13:29 54.08338 6.39042 18060 ft 195 kts 139°
2026-04-29 13:29 54.07179 6.40237 17801 ft 195 kts 139°
2026-04-29 13:30 54.06021 6.41432 17541 ft 194 kts 139°
2026-04-29 13:30 54.04868 6.42622 17283 ft 194 kts 139°
2026-04-29 13:30 54.03714 6.43811 17026 ft 194 kts 139°
2026-04-29 13:30 54.02559 6.44999 16768 ft 194 kts 139°
2026-04-29 13:31 54.01406 6.46184 16508 ft 194 kts 140°
2026-04-29 13:31 54.00253 6.47369 16251 ft 194 kts 140°
2026-04-29 13:31 53.99102 6.48551 15995 ft 194 kts 140°
2026-04-29 13:31 53.97950 6.49734 15737 ft 193 kts 140°
2026-04-29 13:32 53.96800 6.50913 15481 ft 193 kts 140°
2026-04-29 13:32 53.95647 6.52095 15221 ft 193 kts 141°
2026-04-29 13:32 53.94497 6.53272 14965 ft 193 kts 141°
2026-04-29 13:32 53.93349 6.54448 14709 ft 193 kts 141°
2026-04-29 13:33 53.92202 6.55620 14453 ft 192 kts 141°
2026-04-29 13:33 53.91059 6.56790 14196 ft 192 kts 141°
2026-04-29 13:33 53.89917 6.57957 13946 ft 192 kts 141°
2026-04-29 13:33 53.88787 6.59111 13690 ft 192 kts 141°
2026-04-29 13:34 53.87629 6.60292 13431 ft 191 kts 142°
2026-04-29 13:34 53.86489 6.61454 13176 ft 191 kts 142°
2026-04-29 13:34 53.85364 6.62602 12909 ft 192 kts 142°
2026-04-29 13:34 53.84223 6.63764 12652 ft 191 kts 142°
2026-04-29 13:35 53.83089 6.64917 12398 ft 189 kts 142°
2026-04-29 13:35 53.81966 6.66057 12149 ft 187 kts 142°
2026-04-29 13:35 53.80858 6.67185 11902 ft 185 kts 142°
2026-04-29 13:35 53.79758 6.68302 11657 ft 184 kts 143°
2026-04-29 13:36 53.78667 6.69410 11412 ft 183 kts 143°
2026-04-29 13:36 53.77579 6.70514 11170 ft 182 kts 143°
2026-04-29 13:36 53.76497 6.71612 10914 ft 181 kts 143°
2026-04-29 13:36 53.75421 6.72703 10676 ft 180 kts 143°
2026-04-29 13:37 53.74348 6.73787 10437 ft 179 kts 143°
2026-04-29 13:37 53.73280 6.74869 10199 ft 179 kts 143°
2026-04-29 13:37 53.72217 6.75946 9962 ft 178 kts 144°
2026-04-29 13:37 53.71158 6.77016 9726 ft 177 kts 144°
2026-04-29 13:38 53.70108 6.78077 9492 ft 176 kts 144°
2026-04-29 13:38 53.69059 6.79135 9256 ft 175 kts 144°
2026-04-29 13:38 53.68018 6.80185 9028 ft 174 kts 144°
2026-04-29 13:38 53.66982 6.81231 8796 ft 173 kts 144°
2026-04-29 13:39 53.65950 6.82272 8564 ft 173 kts 144°
2026-04-29 13:39 53.64922 6.83308 8335 ft 172 kts 144°
2026-04-29 13:39 53.63891 6.84345 8106 ft 173 kts 144°
2026-04-29 13:39 53.62856 6.85387 7872 ft 173 kts 144°
2026-04-29 13:40 53.61830 6.86419 7647 ft 171 kts 144°
2026-04-29 13:40 53.60812 6.87442 7419 ft 170 kts 144°
2026-04-29 13:40 53.59800 6.88460 7193 ft 169 kts 145°
2026-04-29 13:40 53.58793 6.89471 6969 ft 168 kts 144°
2026-04-29 13:41 53.57790 6.90475 6738 ft 167 kts 144°
2026-04-29 13:41 53.56792 6.91475 6523 ft 167 kts 144°
2026-04-29 13:41 53.55771 6.92349 6435 ft 166 kts 161°
2026-04-29 13:41 53.54602 6.92150 6430 ft 178 kts 202°
2026-04-29 13:42 53.53739 6.90668 6436 ft 183 kts 245°
2026-04-29 13:42 53.53652 6.88609 6437 ft 180 kts 290°
2026-04-29 13:42 53.54358 6.86969 6431 ft 172 kts 330°
2026-04-29 13:42 53.55374 6.85929 6431 ft 171 kts 336°
2026-04-29 13:43 53.56400 6.84930 6430 ft 170 kts 335°
2026-04-29 13:43 53.57419 6.83914 6429 ft 170 kts 335°
2026-04-29 13:43 53.58438 6.82887 6431 ft 170 kts 335°
2026-04-29 13:43 53.59493 6.82079 6437 ft 164 kts 358°
2026-04-29 13:44 53.60575 6.82390 6431 ft 157 kts 32°
2026-04-29 13:44 53.61323 6.83650 6432 ft 153 kts 63°
2026-04-29 13:44 53.61513 6.85394 6437 ft 154 kts 95°
2026-04-29 13:44 53.61073 6.87044 6435 ft 160 kts 128°
2026-04-29 13:45 53.60151 6.88148 6428 ft 165 kts 145°
2026-04-29 13:45 53.59160 6.89118 6428 ft 165 kts 145°
2026-04-29 13:45 53.58172 6.90098 6427 ft 165 kts 144°
2026-04-29 13:45 53.57187 6.91085 6431 ft 165 kts 144°
2026-04-29 13:46 53.56200 6.92069 6431 ft 165 kts 147°
2026-04-29 13:46 53.55052 6.92396 6436 ft 176 kts 186°
2026-04-29 13:46 53.53989 6.91355 6430 ft 184 kts 229°
2026-04-29 13:46 53.53575 6.89364 6431 ft 184 kts 273°
2026-04-29 13:47 53.54026 6.87449 6436 ft 176 kts 316°
2026-04-29 13:47 53.55002 6.86287 6432 ft 171 kts 336°
2026-04-29 13:47 53.56033 6.85290 6431 ft 171 kts 336°
2026-04-29 13:47 53.57060 6.84274 6431 ft 171 kts 335°
2026-04-29 13:48 53.58080 6.83250 6430 ft 171 kts 334°
2026-04-29 13:48 53.59106 6.82262 6431 ft 168 kts 342°
2026-04-29 13:48 53.60220 6.82158 6438 ft 159 kts 20°
2026-04-29 13:48 53.61119 6.83134 6434 ft 154 kts 53°
2026-04-29 13:49 53.61519 6.84771 6429 ft 154 kts 84°
2026-04-29 13:49 53.61294 6.86522 6434 ft 158 kts 116°
2026-04-29 13:49 53.60488 6.87807 6437 ft 165 kts 144°
2026-04-29 13:49 53.59497 6.88786 6426 ft 165 kts 146°
2026-04-29 13:50 53.58507 6.89763 6428 ft 165 kts 145°
2026-04-29 13:50 53.57521 6.90750 6430 ft 165 kts 144°
2026-04-29 13:50 53.56541 6.91735 6430 ft 164 kts 144°
2026-04-29 13:50 53.55470 6.92436 6435 ft 172 kts 172°
2026-04-29 13:51 53.54314 6.91867 6436 ft 181 kts 214°
2026-04-29 13:51 53.53625 6.90121 6430 ft 184 kts 258°
2026-04-29 13:51 53.53780 6.88056 6431 ft 179 kts 302°
2026-04-29 13:51 53.54639 6.86655 6435 ft 171 kts 334°
2026-04-29 13:52 53.55664 6.85648 6431 ft 171 kts 336°
2026-04-29 13:52 53.56689 6.84643 6430 ft 171 kts 335°
2026-04-29 13:52 53.57711 6.83620 6431 ft 171 kts 334°
2026-04-29 13:52 53.58734 6.82591 6431 ft 171 kts 335°
2026-04-29 13:53 53.59830 6.82051 6432 ft 162 kts
2026-04-29 13:53 53.60834 6.82672 6436 ft 155 kts 41°
2026-04-29 13:53 53.61441 6.84124 6435 ft 153 kts 73°
2026-04-29 13:53 53.61453 6.85903 6428 ft 156 kts 104°
2026-04-29 13:54 53.60836 6.87415 6434 ft 163 kts 137°
2026-04-29 13:54 53.59865 6.88429 6430 ft 165 kts 145°
2026-04-29 13:54 53.58872 6.89402 6430 ft 165 kts 145°
2026-04-29 13:54 53.57885 6.90383 6430 ft 165 kts 144°
2026-04-29 13:55 53.56902 6.91371 6429 ft 165 kts 144°
2026-04-29 13:55 53.55897 6.92297 6431 ft 168 kts 156°
2026-04-29 13:55 53.54719 6.92238 6434 ft 178 kts 197°
2026-04-29 13:55 53.53791 6.90860 6436 ft 184 kts 242°
2026-04-29 13:56 53.53618 6.88778 6433 ft 182 kts 287°
2026-04-29 13:56 53.54272 6.87067 6427 ft 174 kts 328°
2026-04-29 13:56 53.55285 6.86008 6429 ft 171 kts 336°
2026-04-29 13:56 53.56315 6.85013 6431 ft 171 kts 335°
2026-04-29 13:57 53.57337 6.83998 6430 ft 171 kts 335°
2026-04-29 13:57 53.58356 6.82973 6429 ft 170 kts 335°
2026-04-29 13:57 53.59405 6.82105 6435 ft 165 kts 354°
2026-04-29 13:57 53.60147 6.82127 6436 ft 159 kts 18°
2026-04-29 13:58 53.61283 6.83534 6434 ft 153 kts 61°
2026-04-29 13:58 53.61521 6.85258 6437 ft 154 kts 93°
2026-04-29 13:58 53.61127 6.86937 6433 ft 160 kts 126°
2026-04-29 13:58 53.60236 6.88063 6426 ft 165 kts 145°
2026-04-29 13:59 53.59229 6.89050 6430 ft 165 kts 145°
2026-04-29 13:59 53.58242 6.90030 6428 ft 165 kts 144°
2026-04-29 13:59 53.57592 6.90683 6429 ft 165 kts 144°
2026-04-29 13:59 53.56288 6.91986 6430 ft 165 kts 145°
2026-04-29 14:00 53.55164 6.92424 6431 ft 175 kts 182°
2026-04-29 14:00 53.54071 6.91510 6434 ft 182 kts 224°
2026-04-29 14:00 53.53579 6.89581 6437 ft 183 kts 269°
2026-04-29 14:00 53.53948 6.87612 6436 ft 175 kts 314°
2026-04-29 14:01 53.54890 6.86395 6429 ft 170 kts 335°
2026-04-29 14:01 53.55915 6.85403 6430 ft 170 kts 336°
2026-04-29 14:01 53.56605 6.84728 6428 ft 170 kts 335°
2026-04-29 14:01 53.57624 6.83709 6429 ft 170 kts 335°
2026-04-29 14:02 53.58641 6.82687 6430 ft 171 kts 335°
2026-04-29 14:02 53.59724 6.82051 6435 ft 163 kts
2026-04-29 14:02 53.60766 6.82589 6438 ft 156 kts 39°
2026-04-29 14:02 53.61414 6.83996 6433 ft 153 kts 70°
2026-04-29 14:03 53.61476 6.85748 6431 ft 156 kts 101°
2026-04-29 14:03 53.60912 6.87307 6436 ft 162 kts 135°
2026-04-29 14:03 53.59950 6.88345 6429 ft 165 kts 145°
2026-04-29 14:03 53.58958 6.89316 6430 ft 165 kts 145°
2026-04-29 14:04 53.57959 6.90312 6430 ft 165 kts 145°
2026-04-29 14:04 53.56989 6.91284 6426 ft 165 kts 144°
2026-04-29 14:04 53.55991 6.92239 6431 ft 167 kts 153°
2026-04-29 14:04 53.54815 6.92295 6436 ft 178 kts 194°
2026-04-29 14:05 53.53843 6.91010 6435 ft 184 kts 238°
2026-04-29 14:05 53.53600 6.88949 6430 ft 182 kts 283°
2026-04-29 14:05 53.54198 6.87175 6433 ft 174 kts 324°
2026-04-29 14:05 53.55197 6.86096 6427 ft 170 kts 336°
2026-04-29 14:06 53.56225 6.85102 6431 ft 170 kts 336°
2026-04-29 14:06 53.57245 6.84089 6427 ft 170 kts 335°
2026-04-29 14:06 53.58264 6.83064 6430 ft 171 kts 335°
2026-04-29 14:06 53.59305 6.82145 6433 ft 166 kts 351°
2026-04-29 14:07 53.60408 6.82263 6433 ft 158 kts 26°
2026-04-29 14:07 53.61232 6.83397 6438 ft 153 kts 59°
2026-04-29 14:07 53.61527 6.85099 6434 ft 154 kts 90°
2026-04-29 14:07 53.61185 6.86813 6430 ft 160 kts 122°
2026-04-29 14:08 53.60306 6.87994 6428 ft 165 kts 144°
2026-04-29 14:08 53.59314 6.88967 6430 ft 165 kts 145°
2026-04-29 14:08 53.58324 6.89946 6429 ft 165 kts 144°
2026-04-29 14:08 53.57338 6.90934 6429 ft 165 kts 144°
2026-04-29 14:09 53.56353 6.91922 6430 ft 165 kts 144°
2026-04-29 14:09 53.55237 6.92435 6431 ft 175 kts 180°
2026-04-29 14:09 53.54125 6.91598 6436 ft 183 kts 222°
2026-04-29 14:09 53.53582 6.89696 6437 ft 184 kts 267°
2026-04-29 14:10 53.53896 6.87719 6432 ft 177 kts 311°
2026-04-29 14:10 53.54825 6.86458 6428 ft 171 kts 335°
2026-04-29 14:10 53.55857 6.85459 6432 ft 171 kts 336°
2026-04-29 14:10 53.56884 6.84451 6431 ft 171 kts 335°
2026-04-29 14:11 53.57904 6.83429 6431 ft 170 kts 335°
2026-04-29 14:11 53.58923 6.82410 6431 ft 170 kts 338°
2026-04-29 14:11 53.60031 6.82086 6433 ft 160 kts 14°
2026-04-29 14:11 53.60990 6.82897 6428 ft 154 kts 47°
2026-04-29 14:12 53.61491 6.84455 6435 ft 153 kts 78°
2026-04-29 14:12 53.61380 6.86229 6437 ft 157 kts 111°
2026-04-29 14:12 53.60657 6.87627 6434 ft 164 kts 142°
2026-04-29 14:12 53.59672 6.88617 6431 ft 165 kts 146°
2026-04-29 14:13 53.58682 6.89589 6430 ft 165 kts 145°
2026-04-29 14:13 53.57698 6.90572 6426 ft 164 kts 144°
2026-04-29 14:13 53.56717 6.91557 6431 ft 164 kts 144°
2026-04-29 14:13 53.55685 6.92389 6436 ft 169 kts 165°
2026-04-29 14:14 53.54507 6.92072 6430 ft 180 kts 206°
2026-04-29 14:14 53.53693 6.90493 6434 ft 184 kts 249°
2026-04-29 14:14 53.53690 6.88410 6437 ft 180 kts 294°
2026-04-29 14:14 53.54455 6.86856 6435 ft 171 kts 332°
2026-04-29 14:15 53.55473 6.85831 6431 ft 170 kts 336°
2026-04-29 14:15 53.56500 6.84830 6430 ft 171 kts 335°
2026-04-29 14:15 53.57520 6.83815 6431 ft 170 kts 335°
2026-04-29 14:15 53.58536 6.82791 6429 ft 170 kts 335°
2026-04-29 14:16 53.59605 6.82060 6437 ft 163 kts
2026-04-29 14:16 53.60668 6.82480 6435 ft 156 kts 36°
2026-04-29 14:16 53.61370 6.83811 6429 ft 154 kts 66°
2026-04-29 14:16 53.61498 6.85571 6434 ft 155 kts 98°
2026-04-29 14:17 53.60993 6.87181 6438 ft 161 kts 131°
2026-04-29 14:17 53.60049 6.88246 6431 ft 165 kts 145°
2026-04-29 14:17 53.59055 6.89221 6431 ft 165 kts 145°
2026-04-29 14:17 53.58066 6.90205 6431 ft 165 kts 144°
2026-04-29 14:18 53.57079 6.91193 6431 ft 165 kts 144°
2026-04-29 14:18 53.56090 6.92164 6431 ft 166 kts 149°
2026-04-29 14:18 53.54924 6.92348 6437 ft 177 kts 191°
2026-04-29 14:18 53.53908 6.91175 6431 ft 184 kts 234°
2026-04-29 14:19 53.53583 6.89138 6429 ft 183 kts 278°
2026-04-29 14:19 53.54116 6.87294 6435 ft 175 kts 321°
2026-04-29 14:19 53.55109 6.86182 6431 ft 170 kts 336°
2026-04-29 14:19 53.56137 6.85190 6431 ft 171 kts 336°
2026-04-29 14:20 53.57161 6.84175 6431 ft 171 kts 335°
2026-04-29 14:20 53.58184 6.83146 6431 ft 171 kts 335°
2026-04-29 14:20 53.59219 6.82190 6434 ft 167 kts 347°
2026-04-29 14:20 53.60330 6.82215 6434 ft 158 kts 23°
2026-04-29 14:21 53.61177 6.83263 6436 ft 153 kts 56°
2026-04-29 14:21 53.61526 6.84955 6435 ft 154 kts 88°
2026-04-29 14:21 53.61237 6.86685 6431 ft 159 kts 120°
2026-04-29 14:21 53.60388 6.87910 6428 ft 165 kts 144°
2026-04-29 14:22 53.59410 6.88873 6429 ft 165 kts 145°
2026-04-29 14:22 53.58421 6.89849 6429 ft 165 kts 145°
2026-04-29 14:22 53.57425 6.90848 6431 ft 164 kts 144°
2026-04-29 14:22 53.56444 6.91833 6431 ft 164 kts 144°
2026-04-29 14:23 53.55353 6.92443 6432 ft 173 kts 175°
2026-04-29 14:23 53.54227 6.91753 6437 ft 182 kts 217°
2026-04-29 14:23 53.53599 6.89931 6435 ft 185 kts 262°
2026-04-29 14:23 53.53828 6.87882 6431 ft 178 kts 307°
2026-04-29 14:24 53.54726 6.86556 6428 ft 171 kts 335°
2026-04-29 14:24 53.55755 6.85560 6430 ft 171 kts 336°
2026-04-29 14:24 53.56782 6.84554 6431 ft 171 kts 335°
2026-04-29 14:24 53.57807 6.83525 6431 ft 172 kts 335°
2026-04-29 14:25 53.58829 6.82499 6431 ft 171 kts 336°
2026-04-29 14:25 53.59935 6.82065 6433 ft 161 kts 11°
2026-04-29 14:25 53.60923 6.82797 6433 ft 155 kts 44°
2026-04-29 14:25 53.61471 6.84311 6437 ft 153 kts 76°
2026-04-29 14:26 53.61415 6.86083 6434 ft 156 kts 108°
2026-04-29 14:26 53.60743 6.87529 6429 ft 164 kts 141°
2026-04-29 14:26 53.59766 6.88524 6430 ft 164 kts 145°
2026-04-29 14:26 53.58779 6.89496 6430 ft 165 kts 145°
2026-04-29 14:27 53.57794 6.90478 6429 ft 165 kts 144°
2026-04-29 14:27 53.56808 6.91464 6430 ft 164 kts 144°
2026-04-29 14:27 53.55792 6.92350 6433 ft 169 kts 161°
2026-04-29 14:28 53.53736 6.90675 6437 ft 184 kts 245°
2026-04-29 14:28 53.53648 6.88580 6437 ft 181 kts 290°
2026-04-29 14:28 53.54364 6.86949 6432 ft 172 kts 331°
2026-04-29 14:28 53.55380 6.85918 6431 ft 170 kts 336°
2026-04-29 14:29 53.56407 6.84922 6431 ft 171 kts 336°
2026-04-29 14:29 53.57430 6.83904 6430 ft 171 kts 335°
2026-04-29 14:29 53.58453 6.82876 6431 ft 171 kts 335°
2026-04-29 14:29 53.59519 6.82075 6437 ft 164 kts 358°
2026-04-29 14:30 53.60598 6.82411 6433 ft 157 kts 33°
2026-04-29 14:30 53.61337 6.83696 6431 ft 154 kts 64°
2026-04-29 14:30 53.61509 6.85449 6437 ft 155 kts 96°
2026-04-29 14:30 53.61046 6.87091 6436 ft 161 kts 129°
2026-04-29 14:31 53.60115 6.88181 6429 ft 165 kts 145°
2026-04-29 14:31 53.59124 6.89153 6428 ft 165 kts 145°
2026-04-29 14:31 53.58139 6.90132 6430 ft 164 kts 144°
2026-04-29 14:31 53.57155 6.91118 6429 ft 164 kts 144°
2026-04-29 14:32 53.56170 6.92097 6429 ft 166 kts 147°
2026-04-29 14:32 53.55036 6.92390 6435 ft 176 kts 187°
2026-04-29 14:32 53.53980 6.91337 6429 ft 184 kts 230°
2026-04-29 14:32 53.53574 6.89342 6433 ft 184 kts 274°
2026-04-29 14:33 53.54046 6.87415 6438 ft 175 kts 318°
2026-04-29 14:33 53.55011 6.86277 6432 ft 171 kts 336°
2026-04-29 14:33 53.56052 6.85271 6431 ft 170 kts 336°
2026-04-29 14:33 53.57076 6.84258 6431 ft 171 kts 335°
2026-04-29 14:34 53.58081 6.83250 6431 ft 171 kts 334°
2026-04-29 14:34 53.59105 6.82262 6432 ft 168 kts 342°
2026-04-29 14:34 53.60221 6.82158 6437 ft 159 kts 20°
2026-04-29 14:34 53.61121 6.83138 6435 ft 154 kts 53°
2026-04-29 14:35 53.61520 6.84778 6430 ft 154 kts 84°
2026-04-29 14:35 53.61291 6.86533 6433 ft 159 kts 116°
2026-04-29 14:35 53.60478 6.87816 6436 ft 164 kts 144°
2026-04-29 14:35 53.59490 6.88792 6428 ft 165 kts 145°
2026-04-29 14:36 53.58499 6.89772 6430 ft 165 kts 145°
2026-04-29 14:36 53.57512 6.90762 6430 ft 165 kts 144°
2026-04-29 14:36 53.56526 6.91751 6430 ft 165 kts 144°
2026-04-29 14:36 53.55453 6.92437 6435 ft 172 kts 172°
2026-04-29 14:37 53.54297 6.91846 6436 ft 181 kts 215°
2026-04-29 14:37 53.53618 6.90080 6431 ft 185 kts 259°
2026-04-29 14:37 53.53789 6.88015 6429 ft 179 kts 303°
2026-04-29 14:37 53.54659 6.86631 6433 ft 171 kts 334°
2026-04-29 14:38 53.55736 6.85950 6433 ft 162 kts
2026-04-29 14:38 53.56711 6.86654 6436 ft 153 kts 50°
2026-04-29 14:38 53.57024 6.88304 6435 ft 153 kts 94°
2026-04-29 14:38 53.56712 6.90020 6438 ft 157 kts 117°
2026-04-29 14:39 53.56074 6.91532 6433 ft 159 kts 123°
2026-04-29 14:39 53.55412 6.93016 6427 ft 159 kts 123°
2026-04-29 14:39 53.54748 6.94501 6430 ft 159 kts 123°
2026-04-29 14:39 53.54082 6.95991 6428 ft 159 kts 123°
2026-04-29 14:40 53.53420 6.97475 6428 ft 159 kts 123°
2026-04-29 14:40 53.52754 6.98962 6431 ft 159 kts 123°
2026-04-29 14:40 53.52093 7.00441 6431 ft 159 kts 123°
2026-04-29 14:40 53.51418 7.01957 6433 ft 163 kts 123°
2026-04-29 14:41 53.50736 7.03490 6433 ft 165 kts 123°
2026-04-29 14:41 53.50048 7.05040 6434 ft 166 kts 123°
2026-04-29 14:41 53.49356 7.06599 6436 ft 167 kts 123°
2026-04-29 14:41 53.48662 7.08162 6436 ft 167 kts 123°
2026-04-29 14:42 53.47964 7.09733 6434 ft 168 kts 123°
2026-04-29 14:42 53.47275 7.11283 6439 ft 168 kts 123°
2026-04-29 14:42 53.46523 7.12814 6438 ft 170 kts 128°
2026-04-29 14:42 53.45736 7.14290 6441 ft 169 kts 128°
2026-04-29 14:43 53.44949 7.15759 6438 ft 169 kts 128°
2026-04-29 14:43 53.44165 7.17219 6438 ft 169 kts 128°
2026-04-29 14:43 53.43382 7.18676 6443 ft 168 kts 128°
2026-04-29 14:43 53.42597 7.20140 6439 ft 169 kts 128°
2026-04-29 14:44 53.41809 7.21604 6439 ft 169 kts 128°
2026-04-29 14:44 53.41021 7.23067 6438 ft 169 kts 128°
2026-04-29 14:44 53.40233 7.24532 6439 ft 169 kts 128°
2026-04-29 14:44 53.39449 7.25988 6438 ft 169 kts 128°
2026-04-29 14:45 53.38663 7.27441 6440 ft 168 kts 128°
2026-04-29 14:45 53.37875 7.28908 6441 ft 171 kts 128°
2026-04-29 14:45 53.37080 7.30387 6437 ft 171 kts 128°
2026-04-29 14:45 53.36287 7.31861 6437 ft 170 kts 128°
2026-04-29 14:46 53.35496 7.33331 6436 ft 170 kts 128°
2026-04-29 14:46 53.34707 7.34794 6437 ft 169 kts 128°
2026-04-29 14:46 53.33921 7.36253 6438 ft 169 kts 128°
2026-04-29 14:46 53.33136 7.37706 6437 ft 169 kts 128°
2026-04-29 14:47 53.32346 7.39169 6440 ft 169 kts 128°
2026-04-29 14:47 53.31561 7.40624 6438 ft 169 kts 128°
2026-04-29 14:47 53.30774 7.42081 6440 ft 169 kts 128°
2026-04-29 14:47 53.30253 7.43047 6439 ft 169 kts 128°
2026-04-29 14:48 53.29202 7.44993 6438 ft 168 kts 128°
2026-04-29 14:48 53.28416 7.46446 6438 ft 168 kts 128°
2026-04-29 14:48 53.27897 7.47404 6438 ft 168 kts 128°
2026-04-29 14:48 53.27111 7.48853 6438 ft 168 kts 128°
2026-04-29 14:49 53.26327 7.50301 6439 ft 169 kts 128°
2026-04-29 14:49 53.25540 7.51750 6438 ft 167 kts 128°
2026-04-29 14:49 53.24755 7.53195 6438 ft 168 kts 128°
2026-04-29 14:49 53.23970 7.54643 6439 ft 168 kts 128°
2026-04-29 14:50 53.23187 7.56087 6439 ft 168 kts 128°
2026-04-29 14:50 53.22398 7.57539 6439 ft 169 kts 128°
2026-04-29 14:50 53.21609 7.58991 6440 ft 169 kts 128°
2026-04-29 14:50 53.20820 7.60444 6441 ft 169 kts 128°
2026-04-29 14:51 53.20031 7.61894 6439 ft 169 kts 128°
2026-04-29 14:51 53.19241 7.63343 6440 ft 169 kts 128°
2026-04-29 14:51 53.18450 7.64800 6443 ft 169 kts 128°
2026-04-29 14:51 53.17659 7.66256 6438 ft 170 kts 128°
2026-04-29 14:52 53.16868 7.67712 6438 ft 169 kts 128°
2026-04-29 14:52 53.16077 7.69166 6439 ft 169 kts 128°
2026-04-29 14:52 53.15288 7.70615 6439 ft 169 kts 128°
2026-04-29 14:52 53.14496 7.72070 6438 ft 169 kts 128°
2026-04-29 14:53 53.13706 7.73520 6440 ft 169 kts 128°
2026-04-29 14:53 53.12918 7.74967 6439 ft 169 kts 128°
2026-04-29 14:53 53.12129 7.76416 6439 ft 169 kts 128°
2026-04-29 14:53 53.11347 7.77843 6438 ft 168 kts 128°
2026-04-29 14:54 53.10556 7.79281 6438 ft 168 kts 128°
2026-04-29 14:54 53.09753 7.80740 6438 ft 169 kts 128°
2026-04-29 14:54 53.08961 7.82181 6441 ft 169 kts 128°
2026-04-29 14:54 53.08178 7.83605 6438 ft 169 kts 128°
2026-04-29 14:55 53.07371 7.85068 6438 ft 169 kts 128°
2026-04-29 14:55 53.06589 7.86488 6441 ft 169 kts 128°
2026-04-29 14:55 53.05798 7.87926 6438 ft 168 kts 128°
2026-04-29 14:55 53.05008 7.89362 6440 ft 169 kts 128°
2026-04-29 14:56 53.04214 7.90804 6439 ft 169 kts 128°
2026-04-29 14:56 53.03424 7.92240 6427 ft 168 kts 128°
2026-04-29 14:56 53.02633 7.93678 6431 ft 169 kts 128°
2026-04-29 14:56 53.01841 7.95113 6430 ft 168 kts 128°
2026-04-29 14:57 53.01054 7.96541 6431 ft 167 kts 128°
2026-04-29 14:57 53.00269 7.97969 6426 ft 168 kts 128°
2026-04-29 14:57 52.99483 7.99397 6427 ft 168 kts 128°
2026-04-29 14:57 52.98695 8.00826 6428 ft 167 kts 128°
2026-04-29 14:58 52.97910 8.02250 6427 ft 167 kts 128°
2026-04-29 14:58 52.97128 8.03674 6425 ft 167 kts 128°
2026-04-29 14:58 52.96341 8.05111 6430 ft 169 kts 128°
2026-04-29 14:58 52.95551 8.06553 6428 ft 169 kts 128°
2026-04-29 14:59 52.94763 8.07985 6428 ft 168 kts 128°
2026-04-29 14:59 52.93976 8.09418 6428 ft 168 kts 128°
2026-04-29 14:59 52.93188 8.10853 6427 ft 168 kts 128°
2026-04-29 14:59 52.92400 8.12280 6429 ft 168 kts 128°
2026-04-29 15:00 52.91611 8.13702 6429 ft 168 kts 128°
2026-04-29 15:00 52.90823 8.15122 6429 ft 168 kts 128°
2026-04-29 15:00 52.90033 8.16551 6431 ft 168 kts 128°
2026-04-29 15:00 52.89241 8.17979 6428 ft 168 kts 128°
2026-04-29 15:01 52.88451 8.19401 6428 ft 168 kts 128°
2026-04-29 15:01 52.87661 8.20826 6429 ft 168 kts 128°
2026-04-29 15:01 52.86871 8.22250 6430 ft 168 kts 128°
2026-04-29 15:01 52.86083 8.23672 6428 ft 167 kts 128°
2026-04-29 15:02 52.85295 8.25089 6430 ft 167 kts 128°
2026-04-29 15:02 52.84510 8.26504 6429 ft 167 kts 128°
2026-04-29 15:02 52.83724 8.27920 6433 ft 167 kts 128°
2026-04-29 15:02 52.82945 8.29326 6426 ft 168 kts 128°
2026-04-29 15:03 52.82155 8.30749 6431 ft 168 kts 128°
2026-04-29 15:03 52.81361 8.32177 6424 ft 169 kts 128°
2026-04-29 15:03 52.80568 8.33606 6429 ft 168 kts 128°
2026-04-29 15:03 52.79775 8.35031 6429 ft 169 kts 128°
2026-04-29 15:04 52.78979 8.36456 6427 ft 168 kts 128°
2026-04-29 15:04 52.78187 8.37879 6429 ft 169 kts 128°
2026-04-29 15:04 52.77395 8.39304 6428 ft 168 kts 128°
2026-04-29 15:04 52.76604 8.40728 6426 ft 168 kts 128°
2026-04-29 15:05 52.75960 8.42270 6424 ft 162 kts 104°
2026-04-29 15:05 52.75795 8.44101 6430 ft 161 kts 94°
2026-04-29 15:05 52.75696 8.45952 6427 ft 162 kts 93°
2026-04-29 15:05 52.75598 8.47799 6427 ft 161 kts 94°
2026-04-29 15:06 52.75500 8.49642 6426 ft 161 kts 93°
2026-04-29 15:06 52.75403 8.51474 6427 ft 160 kts 93°
2026-04-29 15:06 52.75306 8.53310 6426 ft 160 kts 93°
2026-04-29 15:06 52.75210 8.55143 6427 ft 161 kts 94°
2026-04-29 15:07 52.75112 8.56980 6427 ft 160 kts 93°
2026-04-29 15:07 52.75012 8.58812 6425 ft 160 kts 93°
2026-04-29 15:07 52.74912 8.60651 6425 ft 161 kts 93°
2026-04-29 15:07 52.74813 8.62491 6424 ft 161 kts 94°
2026-04-29 15:08 52.74712 8.64333 6427 ft 161 kts 94°
2026-04-29 15:08 52.74303 8.66042 6432 ft 170 kts 129°
2026-04-29 15:08 52.73219 8.66868 6433 ft 182 kts 172°
2026-04-29 15:08 52.71949 8.66694 6428 ft 185 kts 184°
2026-04-29 15:09 52.70678 8.66377 6431 ft 184 kts 184°
2026-04-29 15:09 52.69411 8.66057 6431 ft 185 kts 185°
2026-04-29 15:09 52.68153 8.65740 6429 ft 184 kts 184°
2026-04-29 15:09 52.66884 8.65421 6431 ft 185 kts 184°
2026-04-29 15:10 52.65622 8.65372 6418 ft 180 kts 170°
2026-04-29 15:10 52.64378 8.65601 6417 ft 180 kts 169°
2026-04-29 15:10 52.63137 8.65844 6415 ft 179 kts 168°
2026-04-29 15:10 52.61899 8.66086 6416 ft 179 kts 168°
2026-04-29 15:11 52.60661 8.66328 6416 ft 180 kts 168°
2026-04-29 15:11 52.59420 8.66571 6416 ft 179 kts 168°
2026-04-29 15:11 52.58182 8.66812 6420 ft 179 kts 168°
2026-04-29 15:11 52.56943 8.67055 6418 ft 180 kts 168°
2026-04-29 15:12 52.55702 8.67300 6418 ft 179 kts 168°
2026-04-29 15:12 52.54882 8.67460 6418 ft 180 kts 168°
2026-04-29 15:12 52.53223 8.67785 6416 ft 179 kts 168°
2026-04-29 15:12 52.51990 8.68025 6419 ft 178 kts 168°
2026-04-29 15:13 52.50757 8.68266 6417 ft 178 kts 168°
2026-04-29 15:13 52.49528 8.68505 6417 ft 178 kts 168°
2026-04-29 15:13 52.48294 8.68741 6418 ft 178 kts 168°
2026-04-29 15:13 52.47060 8.68977 6419 ft 179 kts 168°
2026-04-29 15:14 52.45821 8.69216 6418 ft 179 kts 168°
2026-04-29 15:14 52.44587 8.69453 6420 ft 180 kts 169°
2026-04-29 15:14 52.43344 8.69694 6419 ft 179 kts 168°
2026-04-29 15:14 52.42115 8.69931 6418 ft 178 kts 168°
2026-04-29 15:15 52.40887 8.70169 6417 ft 178 kts 168°
2026-04-29 15:15 52.39657 8.70402 6418 ft 178 kts 168°
2026-04-29 15:15 52.38423 8.70639 6422 ft 179 kts 168°
2026-04-29 15:15 52.37178 8.70882 6420 ft 181 kts 168°
2026-04-29 15:16 52.35935 8.71124 6418 ft 179 kts 168°
2026-04-29 15:16 52.34712 8.71362 6417 ft 180 kts 168°
2026-04-29 15:16 52.33468 8.71602 6411 ft 180 kts 168°
2026-04-29 15:16 52.32230 8.71842 6410 ft 179 kts 168°
2026-04-29 15:17 52.31000 8.72078 6410 ft 178 kts 168°
2026-04-29 15:17 52.29771 8.72315 6410 ft 178 kts 168°
2026-04-29 15:17 52.28525 8.72549 6413 ft 178 kts 168°
2026-04-29 15:17 52.27303 8.72772 6411 ft 178 kts 168°
2026-04-29 15:18 52.26076 8.72990 6414 ft 178 kts 168°
2026-04-29 15:18 52.24847 8.73209 6411 ft 177 kts 168°
2026-04-29 15:18 52.23618 8.73432 6412 ft 177 kts 168°
2026-04-29 15:18 52.22386 8.73655 6412 ft 178 kts 168°
2026-04-29 15:19 52.21152 8.73877 6413 ft 179 kts 168°
2026-04-29 15:19 52.19913 8.74103 6413 ft 178 kts 168°
2026-04-29 15:19 52.18677 8.74329 6400 ft 179 kts 168°
2026-04-29 15:19 52.17444 8.74552 6401 ft 178 kts 168°
2026-04-29 15:20 52.16213 8.74775 6401 ft 178 kts 168°
2026-04-29 15:20 52.14987 8.74997 6401 ft 177 kts 168°
2026-04-29 15:20 52.13817 8.75530 6396 ft 174 kts 154°
2026-04-29 15:20 52.12692 8.76236 6394 ft 173 kts 153°
2026-04-29 15:21 52.11561 8.76954 6396 ft 175 kts 153°
2026-04-29 15:21 52.10436 8.77670 6393 ft 173 kts 153°
2026-04-29 15:21 52.09385 8.78581 6331 ft 173 kts 144°
2026-04-29 15:21 52.08361 8.79602 6072 ft 169 kts 143°
2026-04-29 15:22 52.07382 8.80582 5825 ft 163 kts 143°
2026-04-29 15:22 52.06427 8.81531 5572 ft 160 kts 144°
2026-04-29 15:22 52.05483 8.82467 5320 ft 158 kts 143°
2026-04-29 15:22 52.04546 8.83393 5071 ft 158 kts 143°
2026-04-29 15:23 52.03614 8.84316 4822 ft 156 kts 143°
2026-04-29 15:23 52.02682 8.85238 4570 ft 156 kts 143°
2026-04-29 15:23 52.01757 8.86148 4323 ft 156 kts 143°
2026-04-29 15:23 52.00826 8.87062 4076 ft 156 kts 143°
2026-04-29 15:24 51.99897 8.87977 3824 ft 157 kts 144°
2026-04-29 15:24 51.98964 8.88892 3570 ft 157 kts 143°
2026-04-29 15:24 51.98030 8.89798 3320 ft 155 kts 143°
2026-04-29 15:24 51.97105 8.90695 3085 ft 155 kts 143°
2026-04-29 15:25 51.96199 8.91563 3003 ft 144 kts 143°
2026-04-29 15:25 51.95358 8.92362 3004 ft 138 kts 143°
2026-04-29 15:25 51.94541 8.93133 2999 ft 134 kts 144°
2026-04-29 15:25 51.93737 8.93886 3007 ft 134 kts 143°
2026-04-29 15:26 51.92923 8.94641 2998 ft 133 kts 144°
2026-04-29 15:26 51.92136 8.95376 2995 ft 129 kts 143°
2026-04-29 15:26 51.91372 8.96081 2992 ft 125 kts 143°
2026-04-29 15:26 51.90617 8.96768 3000 ft 125 kts 143°
2026-04-29 15:27 51.89873 8.97452 2995 ft 124 kts 144°
2026-04-29 15:27 51.89113 8.98148 2993 ft 123 kts 143°
2026-04-29 15:27 51.88364 8.98830 3003 ft 125 kts 143°
2026-04-29 15:27 51.87594 8.99534 2988 ft 126 kts 143°
2026-04-29 15:28 51.86827 9.00227 2991 ft 126 kts 144°
2026-04-29 15:28 51.86317 9.00686 2996 ft 127 kts 143°
2026-04-29 15:28 51.85277 9.01635 2992 ft 128 kts 143°
2026-04-29 15:28 51.84507 9.02336 2995 ft 128 kts 143°
2026-04-29 15:29 51.83733 9.03046 2993 ft 128 kts 144°
2026-04-29 15:29 51.82024 9.04107 2993 ft 132 kts 153°
2026-04-29 15:30 51.80333 9.05129 2979 ft 124 kts 139°
2026-04-29 15:30 51.79670 9.06001 2983 ft 123 kts 134°
2026-04-29 15:30 51.79016 9.06892 2987 ft 124 kts 134°
2026-04-29 15:30 51.78351 9.07798 2991 ft 126 kts 133°
2026-04-29 15:31 51.77682 9.08717 2981 ft 125 kts 133°
2026-04-29 15:31 51.76985 9.09542 2982 ft 126 kts 143°
2026-04-29 15:31 51.76229 9.10252 2986 ft 126 kts 143°
2026-04-29 15:31 51.75467 9.10967 2985 ft 127 kts 143°
2026-04-29 15:32 51.74700 9.11682 2987 ft 127 kts 143°
2026-04-29 15:32 51.73931 9.12397 2985 ft 127 kts 144°
2026-04-29 15:32 51.73163 9.13105 2986 ft 127 kts 143°
2026-04-29 15:32 51.72390 9.13816 2986 ft 130 kts 143°
2026-04-29 15:33 51.71597 9.14556 2982 ft 133 kts 143°
2026-04-29 15:33 51.70809 9.15293 2979 ft 130 kts 143°
2026-04-29 15:33 51.70036 9.16011 2980 ft 130 kts 143°
2026-04-29 15:33 51.69255 9.16733 2975 ft 128 kts 144°
2026-04-29 15:34 51.68482 9.17448 2985 ft 127 kts 144°
2026-04-29 15:34 51.67722 9.18157 2975 ft 126 kts 143°
2026-04-29 15:34 51.66967 9.18864 2975 ft 125 kts 144°
2026-04-29 15:34 51.66208 9.19575 2977 ft 128 kts 143°
2026-04-29 15:35 51.65445 9.20298 2982 ft 127 kts 144°
2026-04-29 15:35 51.64686 9.21009 2976 ft 126 kts 143°
2026-04-29 15:35 51.63915 9.21729 2927 ft 133 kts 144°
2026-04-29 15:35 51.63085 9.22519 2677 ft 142 kts 143°
2026-04-29 15:36 51.62224 9.23357 2434 ft 148 kts 144°
2026-04-29 15:36 51.61330 9.24241 2183 ft 153 kts 144°
2026-04-29 15:36 51.60426 9.25138 1991 ft 150 kts 144°
2026-04-29 15:36 51.59523 9.25879 1983 ft 142 kts 153°
2026-04-29 15:37 51.58925 9.26260 1987 ft 137 kts 154°
2026-04-29 15:37 51.58041 9.26810 1986 ft 136 kts 153°
2026-04-29 15:37 51.57162 9.27353 1983 ft 134 kts 154°
2026-04-29 15:37 51.56301 9.27893 1983 ft 132 kts 154°
2026-04-29 15:38 51.55441 9.28434 1984 ft 134 kts 153°
2026-04-29 15:38 51.54570 9.28963 1987 ft 135 kts 159°
2026-04-29 15:38 51.53649 9.29281 1983 ft 134 kts 163°
2026-04-29 15:38 51.52733 9.29552 1987 ft 135 kts 168°
2026-04-29 15:39 51.51788 9.29540 1983 ft 137 kts 178°
2026-04-29 15:39 51.50842 9.29351 2044 ft 130 kts 183°
2026-04-29 15:39 51.50014 9.29450 2144 ft 112 kts 149°
2026-04-29 15:39 51.49292 9.29976 2095 ft 117 kts 148°
2026-04-29 15:40 51.48569 9.30495 1985 ft 110 kts 147°
2026-04-29 15:40 51.47900 9.31044 1819 ft 109 kts 147°
2026-04-29 15:40 51.47236 9.31485 1749 ft 100 kts 152°
2026-04-29 15:40 51.46607 9.31975 1628 ft 100 kts 143°
2026-04-29 15:41 51.46008 9.32520 1529 ft 97 kts 142°
2026-04-29 15:41 51.45469 9.33123 1437 ft 95 kts 138°
2026-04-29 15:41 51.44916 9.33701 1338 ft 93 kts 140°
2026-04-29 15:41 51.44387 9.34276 1261 ft 91 kts 139°
2026-04-29 15:42 51.43876 9.34842 1228 ft 88 kts 138°
2026-04-29 15:42 51.43373 9.35419 1194 ft 90 kts 140°
2026-04-29 15:42 51.42853 9.35997 1151 ft 93 kts 138°
2026-04-29 15:42 51.42390 9.36701 1046 ft 92 kts 121°
2026-04-29 15:43 51.42174 9.37650 905 ft 91 kts 97°
2026-04-29 15:43 51.42111 9.38631 867 ft 80 kts 94°
2026-04-29 15:43 51.42066 9.39431 863 ft 62 kts 94°
2026-04-29 15:43 51.42032 9.39934 857 ft 32 kts 104°
2026-04-29 15:44 51.41959 9.40177 859 ft 5 kts 123°
2026-04-29 15:44 51.41958 9.40178 863 ft 0 kts 123°
2026-04-29 15:44 51.41948 9.40202 859 ft 10 kts 123°
2026-04-29 15:44 51.41871 9.40211 857 ft 15 kts 272°
2026-04-29 15:45 51.41878 9.40018 863 ft 33 kts 275°
2026-04-29 15:45 51.41851 9.39785 863 ft 16 kts 184°
2026-04-29 15:45 51.41759 9.39769 829 ft 14 kts 183°
2026-04-29 15:45 51.41723 9.39765 828 ft 0 kts 182°